[[{"header":{"parameterUnit":"m.s-1","parameterCategory":1,"la1":30.2991,"la2":30.254,"lo1":-89.0895,"lo2":-89.0444,"dy":0.0017,"dx":0.0017,"nx":28,"ny":28,"refTime":"2024-07-28T03:00:00:Z","depth":0,"parameterNumber":2,"parameterNumberName":"U-component_of_WINDS"},"data":[0,0,0,0,0,0,0,0,0,0,0,0,0,0,0,0,0,0,0,0,0,0,0,0,0,0,0,0,0,0,0,0,0,0,0,0,0,0,0,0,0,0,0,0,0,0,0,0,0,0,0,0,0,0,0,0,0,0,4.4955,4.4956,0,4.5027,4.5028,4.5028,4.492,4.4916,4.4912,4.4909,4.4983,4.4988,4.4993,0,0,0,0,0,0,0,0,0,0,0,0,0,4.4722,4.4727,4.4955,4.4956,4.4957,4.5027,4.5028,4.5029,4.4921,4.4916,4.4911,4.4907,4.4981,4.4987,4.4994,0,0,0,0,0,0,0,0,0,0,0,0,0,4.4812,4.4728,4.4955,4.4911,4.4908,4.5026,4.5028,4.5029,4.4921,4.4916,4.491,4.4905,4.4979,4.4987,4.4995,4.5159,0,0,4.502,4.5024,0,0,0,0,0,0,0,0,4.4807,4.482,4.4917,4.4914,4.4911,4.4958,4.4972,4.5073,4.4923,4.4916,4.4909,4.4902,4.4979,4.4987,4.5013,4.5163,4.5166,4.5021,4.5026,4.5029,4.5032,0,0,0,0,0,0,0,4.4801,4.4816,4.4983,4.4918,4.4915,4.4887,4.4894,4.4991,4.4979,4.4917,4.4909,4.4919,4.4977,4.5005,4.5014,4.5167,4.5021,4.5028,4.5033,4.5036,4.5452,4.5458,0,0,0,0,0,0,4.48,4.4812,4.4981,4.4985,4.4844,4.4896,4.4903,4.4949,4.4977,4.4976,4.4924,4.4913,4.4994,4.5004,4.5016,4.5208,4.5029,4.5037,4.5042,4.5446,4.5453,4.546,0,0,0,0,0,0,4.4795,4.4816,4.4978,4.4897,4.4915,4.4906,4.4958,4.4953,4.4982,4.4983,4.498,4.4955,4.499,4.5005,4.5124,4.5209,4.5041,4.5048,4.5438,4.5448,4.5456,4.5595,0,0,0,0,0,0,4.4789,4.4815,4.4878,4.4899,4.492,4.5086,4.4964,4.4959,4.4996,4.4984,4.5012,4.5011,4.4987,4.5112,4.5132,4.5217,4.5055,4.5431,4.5443,4.5453,4.5582,4.5607,4.5629,0,0,0,0,0,4.4781,4.4915,4.4882,4.4903,4.4999,4.5091,4.5103,4.5072,4.5004,4.5066,4.5066,4.501,4.5197,4.5125,4.5147,4.5236,4.5425,4.5439,4.5453,4.5572,4.5602,4.5628,0,0,0,0,0,0,4.4905,4.4917,4.488,4.5025,4.5058,4.5072,4.515,4.5106,4.5158,4.5144,4.5104,4.5111,4.5238,4.5249,4.5169,4.5395,4.5299,4.5318,4.5383,4.5412,4.5435,4.5428,4.5061,0,0,0,0,0,4.4949,4.5023,4.5029,4.5156,4.5174,4.516,4.5199,4.5172,4.5204,4.5218,4.5226,4.526,4.5325,4.5369,4.543,4.5584,4.5587,4.5655,4.5679,4.5698,4.5714,4.5792,4.5822,4.5505,4.5505,4.5504,0,0,4.5041,4.5056,4.5106,4.5181,4.5203,4.528,4.5172,4.5259,4.5314,4.5231,4.5343,4.5351,4.5385,4.5521,4.5581,4.5534,4.5802,4.5715,4.573,4.5736,4.581,4.584,4.5866,4.5514,4.5512,4.5511,0,0,4.5246,4.5267,4.5373,4.5397,4.5432,4.5421,4.5447,4.5468,4.5469,4.5581,4.5519,4.5585,4.57,4.5726,4.5754,4.5967,4.5916,4.5988,4.6109,4.6186,4.6211,4.6233,4.6306,4.6333,4.6005,4.6005,4.6005,0,4.5356,4.5469,4.5434,4.5523,4.5557,4.5485,4.5591,4.5616,4.5669,4.5694,4.564,4.578,4.5799,4.5938,4.599,4.6016,4.6043,4.5984,4.621,4.6232,4.6252,4.6321,4.6349,4.6013,4.6013,4.6012,4.6011,0,4.56,4.568,4.5762,4.5813,4.5857,4.5955,4.5933,4.5981,4.5951,4.5945,4.6059,4.6078,4.6139,4.6171,4.6143,4.6306,4.6275,4.6217,4.612,4.6291,4.6355,4.6382,4.6025,4.6022,4.602,4.6018,0,0,4.5886,4.5916,4.5946,4.5967,4.5999,4.6059,4.6153,4.6213,4.6254,4.6293,4.6369,4.6467,4.6412,4.6444,4.6418,4.6486,4.665,4.6418,4.6418,4.6458,4.6828,4.687,4.6901,4.6617,4.6622,4.6626,4.6824,0,4.6089,4.625,4.622,4.6377,4.6448,4.638,4.6461,4.6489,4.6486,4.6545,4.6542,4.6611,4.6535,4.6553,4.6618,4.6616,4.6723,4.6602,4.6685,4.6689,4.6677,4.6935,4.6981,4.7167,4.6849,4.6853,4.6857,0,4.6347,4.6394,4.6558,4.6576,4.6604,4.6678,4.6729,4.6787,4.6817,4.6809,4.6845,4.6805,4.6896,4.6799,4.6924,4.6842,4.6874,4.6879,4.6885,4.689,4.6782,4.6945,4.7226,4.7253,4.6896,4.6893,4.689,0,4.6535,4.6639,4.675,4.6771,4.6796,4.6848,4.6861,4.6885,4.6922,4.6967,4.699,4.7045,4.7075,4.7118,4.7093,4.7026,4.7221,4.7123,4.7216,4.7216,4.7258,4.7256,4.7546,4.7284,4.7284,4.7283,4.7282,0,4.6763,4.6865,4.6834,4.6902,4.7014,4.6979,4.709,4.7094,4.7116,4.7182,4.7127,4.719,4.7155,4.7216,4.7197,4.7301,4.7316,4.7311,4.7304,4.7315,4.7315,4.7334,4.7319,4.729,4.7289,4.7287,4.7286,0,4.6991,4.6975,4.7091,4.7104,4.711,4.7191,4.7202,4.7265,4.7257,4.7342,4.736,4.7348,4.7416,4.7396,4.747,4.7457,4.7588,4.7566,4.7578,4.7572,4.7664,4.7655,4.7975,4.8014,4.7729,4.7732,4.7735,0,4.7136,4.7213,4.7235,4.7275,4.7291,4.7358,4.7395,4.7363,4.7403,4.7441,4.7499,4.7562,4.761,4.7721,4.7719,4.7774,4.7752,4.786,4.776,4.7767,4.775,4.7745,4.7751,4.7879,4.7883,4.7885,4.7888,0,4.7395,4.7383,4.7439,4.7491,4.7537,4.7577,4.7612,4.7648,4.7618,4.7666,4.7735,4.7772,4.7847,4.7909,4.7959,4.797,4.7924,4.7919,4.7943,4.7953,4.7956,4.7952,4.763,4.7912,4.7909,4.7908,4.7906,4.7905,4.7584,4.7648,4.7672,4.7736,4.7758,4.7792,4.785,4.785,4.7906,4.7964,4.7941,4.8019,4.8044,4.8106,4.8125,4.8184,4.8143,4.8178,4.8187,4.8195,4.8205,4.7948,4.8194,4.8193,4.8192,4.8192,4.8191,0,4.7837,4.7849,4.7908,4.7958,4.8007,4.7959,4.7995,4.8039,4.8108,4.8135,4.8184,4.8261,4.8321,4.8322,4.8378,4.8425,4.8404,4.844,4.8435,4.8438,4.8241,4.8213,4.8455,4.8455,4.8455,4.8455,4.8455,4.8455,4.7974,4.8079,4.807,4.8184,4.8195,4.8271,4.8295,4.8324,4.8346,4.8434,4.8483,4.8484,4.8501,4.8556,4.8608,4.8607,4.8628,4.8672,4.8662,4.8478,4.8452,4.8427,4.84,4.8678,4.8678,4.8853,4.8855,4.8856]},{"header":{"parameterUnit":"m.s-1","parameterCategory":1,"la1":30.2991,"la2":30.254,"lo1":-89.0895,"lo2":-89.0444,"dy":0.0017,"dx":0.0017,"nx":28,"ny":28,"refTime":"2024-07-28T03:00:00:Z","depth":0,"parameterNumber":3,"parameterNumberName":"V-component_of_WINDS"},"data":[0,0,0,0,0,0,0,0,0,0,0,0,0,0,0,0,0,0,0,0,0,0,0,0,0,0,0,0,0,0,0,0,0,0,0,0,0,0,0,0,0,0,0,0,0,0,0,0,0,0,0,0,0,0,0,0,0,0,3.6649,3.665,0,3.6752,3.6753,3.6754,3.6739,3.6737,3.6735,3.6734,3.6835,3.6839,3.6843,0,0,0,0,0,0,0,0,0,0,0,0,0,3.6434,3.6438,3.6649,3.665,3.6651,3.6751,3.6753,3.6754,3.6739,3.6737,3.6735,3.6733,3.6834,3.6839,3.6844,0,0,0,0,0,0,0,0,0,0,0,0,0,3.6531,3.644,3.6648,3.6656,3.6658,3.6751,3.6753,3.6755,3.6739,3.6737,3.6734,3.6732,3.6832,3.6838,3.6845,3.6936,0,0,3.6864,3.6867,0,0,0,0,0,0,0,0,3.6526,3.6539,3.6653,3.6655,3.6658,3.673,3.6714,3.6815,3.674,3.6708,3.6734,3.6731,3.6802,3.6811,3.6835,3.6941,3.6945,3.6865,3.6869,3.6872,3.6873,0,0,0,0,0,0,0,3.6519,3.6535,3.6689,3.6655,3.6658,3.6652,3.6663,3.6733,3.6768,3.6711,3.671,3.6723,3.6802,3.6829,3.6838,3.6947,3.6865,3.687,3.6874,3.6877,3.713,3.7133,0,0,0,0,0,0,3.6511,3.6529,3.6686,3.6692,3.6584,3.6658,3.6671,3.6709,3.6767,3.6774,3.6725,3.6721,3.6819,3.683,3.6841,3.6951,3.6872,3.6878,3.6881,3.7127,3.7131,3.7134,0,0,0,0,0,0,3.6506,3.6525,3.6682,3.6611,3.663,3.6665,3.6708,3.6712,3.6739,3.6778,3.6783,3.6746,3.6818,3.6832,3.6912,3.6954,3.688,3.6886,3.7124,3.7128,3.7132,3.7172,0,0,0,0,0,0,3.65,3.6524,3.656,3.6612,3.6634,3.6753,3.6711,3.6716,3.6751,3.6748,3.6799,3.6805,3.6817,3.6903,3.6919,3.6962,3.6891,3.712,3.7126,3.7131,3.7167,3.7177,3.7186,0,0,0,0,0,3.6493,3.6567,3.6562,3.6581,3.6681,3.6756,3.6768,3.6781,3.6755,3.679,3.6815,3.6804,3.6947,3.6911,3.6929,3.6975,3.7118,3.7124,3.7131,3.7163,3.7175,3.7186,0,0,0,0,0,0,3.6518,3.6574,3.6569,3.6662,3.6704,3.6753,3.6799,3.6794,3.6844,3.6838,3.6851,3.6863,3.6944,3.6967,3.6926,3.7065,3.7029,3.7039,3.7047,3.7059,3.7068,3.706,3.6897,0,0,0,0,0,3.6535,3.6593,3.6637,3.6715,3.6737,3.6764,3.6797,3.6804,3.6847,3.6865,3.6895,3.6937,3.6991,3.7026,3.7078,3.7171,3.718,3.721,3.722,3.7227,3.7236,3.7284,3.7298,3.7155,3.7155,3.7155,0,0,3.6569,3.6607,3.6642,3.6721,3.6755,3.6812,3.6779,3.6842,3.6885,3.6874,3.6952,3.6975,3.7022,3.7108,3.7148,3.713,3.7277,3.7235,3.7241,3.7246,3.7292,3.7306,3.7318,3.7159,3.7159,3.7158,0,0,3.6662,3.6697,3.6765,3.6799,3.685,3.6868,3.6884,3.6933,3.6949,3.7028,3.702,3.707,3.7164,3.7197,3.7226,3.733,3.7321,3.7346,3.7395,3.7442,3.7453,3.7463,3.7499,3.7511,3.7355,3.7355,3.7355,0,3.6698,3.6787,3.68,3.6864,3.6898,3.6891,3.6959,3.6991,3.7056,3.7079,3.7059,3.7176,3.7207,3.73,3.7325,3.735,3.7367,3.734,3.7451,3.7461,3.747,3.7504,3.7518,3.7358,3.7357,3.7357,3.7357,0,3.6828,3.6889,3.6937,3.7001,3.7041,3.7106,3.7128,3.7166,3.7168,3.7187,3.7266,3.7303,3.7362,3.7385,3.7388,3.7478,3.7465,3.7448,3.7411,3.7486,3.7518,3.7532,3.7361,3.736,3.736,3.7359,0,0,3.694,3.701,3.7027,3.7055,3.7111,3.7158,3.7222,3.7281,3.7312,3.7357,3.741,3.7489,3.7472,3.7505,3.7512,3.7553,3.7631,3.753,3.7532,3.7547,3.7731,3.7743,3.7758,3.7625,3.7628,3.763,3.7726,0,3.7036,3.7152,3.7165,3.7266,3.7322,3.7316,3.7371,3.7411,3.743,3.7478,3.7499,3.7554,3.7529,3.7549,3.759,3.7613,3.7668,3.7606,3.7673,3.7675,3.7661,3.7775,3.7788,3.7878,3.7739,3.7741,3.7743,0,3.7165,3.7214,3.7322,3.7368,3.7392,3.7442,3.7496,3.7543,3.7587,3.7597,3.7634,3.7635,3.7698,3.766,3.7747,3.7704,3.7732,3.7747,3.7751,3.7757,3.7713,3.7783,3.7907,3.7919,3.7763,3.7761,3.776,0,3.7234,3.7327,3.7403,3.7428,3.7484,3.7519,3.7544,3.7585,3.7619,3.7666,3.7687,3.774,3.7769,3.7809,3.7823,3.7794,3.7909,3.7872,3.7918,3.7918,3.7943,3.7941,3.8071,3.7962,3.7962,3.7962,3.7961,0,3.734,3.7406,3.7435,3.7482,3.7554,3.7568,3.7639,3.7662,3.7698,3.7748,3.7745,3.7791,3.7808,3.7856,3.7867,3.7937,3.795,3.7959,3.7961,3.7959,3.7957,3.7977,3.797,3.7965,3.7964,3.7964,3.7963,0,3.743,3.7452,3.7534,3.7581,3.7594,3.7646,3.7685,3.7729,3.7747,3.781,3.7825,3.7853,3.791,3.7928,3.7996,3.8003,3.8084,3.8081,3.807,3.807,3.8115,3.811,3.8262,3.8282,3.8161,3.8162,3.8163,0,3.7496,3.7546,3.7598,3.7632,3.7659,3.7713,3.7748,3.7762,3.7798,3.7851,3.7888,3.7944,3.799,3.808,3.8106,3.8157,3.8155,3.8204,3.8162,3.8158,3.8154,3.815,3.8155,3.8212,3.8213,3.8214,3.8215,0,3.761,3.7618,3.7669,3.7724,3.7765,3.7809,3.785,3.7877,3.7898,3.7938,3.7997,3.8032,3.8102,3.8157,3.8209,3.8233,3.8227,3.8228,3.8241,3.8239,3.823,3.8234,3.809,3.8224,3.8223,3.8223,3.8222,3.8222,3.7689,3.7733,3.7776,3.7832,3.7865,3.7904,3.7948,3.7971,3.8021,3.808,3.8085,3.8148,3.8188,3.8258,3.8284,3.8331,3.8317,3.8337,3.8341,3.8346,3.8349,3.8223,3.8341,3.8341,3.8341,3.834,3.834,0,3.7801,3.7829,3.7881,3.7939,3.7983,3.7975,3.8021,3.8057,3.8113,3.8152,3.8197,3.8263,3.8316,3.8346,3.8398,3.8431,3.8429,3.8444,3.8441,3.8446,3.8359,3.8342,3.8444,3.8444,3.8444,3.8444,3.8444,3.8444,3.7865,3.7939,3.7952,3.8041,3.8068,3.813,3.8157,3.8192,3.8222,3.8297,3.8342,3.8361,3.8395,3.845,3.8498,3.8505,3.8524,3.854,3.8546,3.8463,3.8453,3.8442,3.8426,3.8545,3.8545,3.8629,3.8629,3.863]}]]